Orbital Elements at Epoch 2459200.5 (2020-Dec-17.0) TDB
Reference: JPL 19 (heliocentric ecliptic J2000)
Element | Value | Uncertainty (1-sigma) | Units |
e | .1770252194026594 | 3.3168e-08 | |
a | 2.565373167365547 | 1.1186e-08 | au |
q | 2.111237419562966 | 8.5744e-08 | au |
i | 4.611455115813146 | 3.962e-06 | deg |
node | 32.34440966941209 | 4.9735e-05 | deg |
peri | 6.429653360522051 | 5.1799e-05 | deg |
M | 233.122991936519 | 1.7522e-05 | deg |
tp | 2459729.437887988072 (2022-May-29.93788799) | 7.567e-05 | TDB |
period | 1500.804933707402 4.11 | 9.8157e-06 2.687e-08 | d yr |
n | .2398712796810314 | 1.5688e-09 | deg/d |
Q | 3.019508915168128 | 1.3166e-08 | au |
|
| | Orbit Determination Parameters
Additional Information
|